Pellston, MI

11:07 PM EDT on April 27, 2017 (GMT -0400)
Pellston Regional Airport Of Emmet County

Weather History for KPLN - June, 2013

Change the Weather History Date:

Thursday, June 13, 2013

  Actual Average Record
Temperature  
Mean Temperature 62 °F -  
Max Temperature 75 °F 74 °F 95 °F (1956)
Min Temperature 52 °F 49 °F 32 °F (2012)
Degree Days  
Heating Degree Days 2    
Growing Degree Days 12 (Base 50)    
Moisture  
Dew Point 51 °F    
Average Humidity 65    
Maximum Humidity 89    
Minimum Humidity 51    
Precipitation  
Precipitation 0.00 in - - ()
Sea Level Pressure  
Sea Level Pressure 29.88 in    
Wind  
Wind Speed 7 mph (NW)    
Max Wind Speed 17 mph    
Max Gust Speed 25 mph    
Visibility 10 miles    
Events      
Averages and records for this station are not official NWS values.
T = Trace of Precipitation, MM = Missing Value Source: NWS Daily Summary

Daily Weather History Graph

Daily Weather History Graph

Search for Another Location

Airport or City:

Trip Planner

Search our weather history database for the weather conditions in past years. The results will help you decide how hot, cold, wet, or windy it might be!

Date:

Astronomy

Jun. 13, 2013 Rise Set
Actual Time 5:49 AM EDT 9:29 PM EDT
Civil Twilight 5:11 AM EDT 10:07 PM EDT
Nautical Twilight 4:21 AM EDT 10:57 PM EDT
Astronomical Twilight 3:12 AM EDT 12:06 AM EDT
Moon 10:37 AM EDT (6/13) No Moon Set
Length of Visible Light 16h 55m
Length of Day
15h 39m
Waxing Crescent, 21% of the Moon is Illuminated
Jun 13
Waxing Crescent
Jun 16
First Quarter
Jun 23
Full
Jun 30
Last Quarter
Jul 8
New

Hourly Weather History & Observations

Time (EDT) Temp. Dew Point Humidity Pressure Visibility Wind Dir Wind Speed Gust Speed Precip Events Conditions
12:54 AM 57.9 °F 50.0 °F 75% 29.75 in 10.0 mi West 3.5 mph - N/A   Clear
1:54 AM 57.0 °F 50.0 °F 77% 29.75 in 10.0 mi Calm Calm - N/A   Clear
2:54 AM 53.1 °F 48.9 °F 86% 29.75 in 10.0 mi West 3.5 mph - N/A   Clear
3:54 AM 55.0 °F 48.0 °F 77% 29.76 in 10.0 mi West 5.8 mph - N/A   Clear
4:54 AM 53.1 °F 48.0 °F 83% 29.75 in 10.0 mi WNW 5.8 mph - N/A   Clear
5:54 AM 52.0 °F 48.9 °F 89% 29.78 in 10.0 mi West 4.6 mph - N/A   Clear
6:54 AM 53.1 °F 48.9 °F 86% 29.80 in 10.0 mi WNW 8.1 mph - N/A   Clear
7:54 AM 57.9 °F 50.0 °F 75% 29.81 in 10.0 mi NW 4.6 mph - N/A   Clear
8:54 AM 64.0 °F 51.1 °F 63% 29.83 in 10.0 mi North 9.2 mph - N/A   Clear
9:54 AM 64.0 °F 52.0 °F 65% 29.84 in 10.0 mi WNW 11.5 mph - N/A   Clear
10:54 AM 64.0 °F 52.0 °F 65% 29.86 in 10.0 mi WNW 6.9 mph - N/A   Scattered Clouds
11:54 AM 68.0 °F 54.0 °F 61% 29.88 in 10.0 mi NNW 8.1 mph 17.3 mph N/A   Mostly Cloudy
12:36 PM 69.8 °F 53.6 °F 56% 29.88 in 10.0 mi North 10.4 mph 17.3 mph N/A   Overcast
12:46 PM 69.8 °F 53.6 °F 56% 29.88 in 10.0 mi North 10.4 mph - N/A   Overcast
12:54 PM 70.0 °F 54.0 °F 57% 29.88 in 10.0 mi North 11.5 mph 18.4 mph N/A   Overcast
1:10 PM 71.6 °F 53.6 °F 53% 29.89 in 10.0 mi North 9.2 mph - N/A   Mostly Cloudy
1:54 PM 72.0 °F 54.0 °F 53% 29.89 in 10.0 mi North 11.5 mph 21.9 mph N/A   Overcast
2:54 PM 73.0 °F 54.0 °F 51% 29.90 in 10.0 mi North 11.5 mph 19.6 mph N/A   Scattered Clouds
3:54 PM 73.0 °F 54.0 °F 51% 29.91 in 10.0 mi NW 16.1 mph 24.2 mph N/A   Scattered Clouds
4:54 PM 73.0 °F 54.0 °F 51% 29.94 in 10.0 mi NW 17.3 mph 23.0 mph N/A   Clear
5:54 PM 72.0 °F 54.0 °F 53% 29.94 in 10.0 mi NW 13.8 mph 25.3 mph N/A   Mostly Cloudy
6:54 PM 71.1 °F 54.0 °F 55% 29.96 in 10.0 mi NW 10.4 mph - N/A   Clear
7:54 PM 69.1 °F 52.0 °F 54% 29.98 in 10.0 mi NNW 13.8 mph 23.0 mph N/A   Mostly Cloudy
8:54 PM 66.0 °F 52.0 °F 60% 30.00 in 10.0 mi NNW 8.1 mph - N/A   Clear
9:54 PM 62.1 °F 51.1 °F 67% 30.01 in 10.0 mi NNW 8.1 mph - N/A   Clear
10:54 PM 60.1 °F 48.0 °F 64% 30.02 in 10.0 mi North 8.1 mph - N/A   Clear
11:54 PM 54.0 °F 46.0 °F 75% 30.03 in 10.0 mi WNW 5.8 mph - N/A   Clear